Printer-friendly version

IAU Minor Planet Center

Minor Planet Center

MPEC 2005-Q47 : 2005 QQ11

The following Minor Planet Electronic Circular may be linked-to from your own Web pages, but must not otherwise be redistributed electronically.


Read MPEC 2005-Q46 Read MPEC 2005-Q48


M.P.E.C. 2005-Q47                                Issued 2005 Aug. 29, 14:40 UT

     The Minor Planet Electronic Circulars contain information on unusual
         minor planets and routine data on comets.  They are published
   on behalf of Commission 20 of the International Astronomical Union by the
          Minor Planet Center, Smithsonian Astrophysical Observatory,
                          Cambridge, MA 02138, U.S.A.

                  Supported in part by the Brinson Foundation
             Prepared using the Tamkin Foundation Computer Network

                              MPC@CFA.HARVARD.EDU
          URL http://cfa-www.harvard.edu/iau/mpc.html  ISSN 1523-6714

                                   2005 QQ11

Observations:
     K05Q11Q* C2005 08 28.26453 23 22 58.70 -03 43 20.9          21.0 V EQ047691
     K05Q11Q  C2005 08 28.28524 23 22 59.19 -03 42 50.2          20.9 V EQ047691
     K05Q11Q  C2005 08 28.30595 23 22 59.69 -03 42 18.5          21.1 V EQ047691
     K05Q11Q  C2005 08 28.42472 23 23 02.56 -03 39 19.2          20.9 V EQ047291
     K05Q11Q  C2005 08 28.42872 23 23 02.67 -03 39 13.2          21.1 V EQ047291
     K05Q11Q  C2005 08 28.43277 23 23 02.78 -03 39 06.6          21.2 V EQ047291
     K05Q11Q  C2005 08 29.26071 23 23 33.28 -03 18 02.7          21.2 V EQ047291
     K05Q11Q  C2005 08 29.26526 23 23 33.40 -03 17 55.6          20.9 V EQ047291
     K05Q11Q  C2005 08 29.26937 23 23 33.50 -03 17 49.5          21.0 V EQ047291
     K05Q11Q  C2005 08 29.32346 23 23 34.68 -03 16 25.6          20.1 R EQ047651
     K05Q11Q  C2005 08 29.33096 23 23 34.87 -03 16 14.7          20.2 R EQ047651
     K05Q11Q  C2005 08 29.33346 23 23 34.96 -03 16 10.3          20.2 R EQ047651

Observer details:
291 LPL/Spacewatch II.  Observer T. H. Bressi.  1.8-m f/2.7 reflector + CCD.
651 Grasslands Observatory, Tucson.  Observer J. E. McGaha.  0.62-m f/5.1
    Newtonian reflector + CCD.
691 Steward Observatory, Kitt Peak.  Observer A. F. Tubbiolo.  0.9-m f/3
    reflector + CCD.

Orbital elements:
2005 QQ11
Epoch 2005 Aug. 18.0 TT = JDT 2453600.5                 MPC
M 343.18700              (2000.0)            P               Q
n   0.31153298     Peri.   38.32124     +0.96069131     -0.27552517
a   2.1550964      Node   337.60089     +0.22756433     +0.85175383
e   0.4438713      Incl.    5.12370     +0.15901787     +0.44564704
P   3.16           H   22.4           G   0.15
From 12 observations 2005 Aug. 28-29.  E-assumed.

Ephemeris:
2005 QQ11                a,e,i = 2.16, 0.44, 5                   q = 1.1985
Date    TT    R. A. (2000) Decl.     Delta      r     Elong.  Phase     V
2005 08 28    23 22.81   -03 49.7    0.279    1.282   164.8    12.0    20.9
2005 09 07    23 28.17   +00 46.8    0.244    1.249   170.6     7.6    20.4
2005 09 17    23 33.39   +06 10.2    0.221    1.224   171.4     7.0    20.1
2005 09 27    23 39.93   +11 55.1    0.210    1.207   166.6    11.1    20.1
2005 10 07    23 49.19   +17 20.8    0.209    1.199   160.8    15.9    20.3
2005 10 17    00 02.32   +21 52.0    0.219    1.200   155.9    19.8    20.5
2005 10 27    00 19.28   +25 09.6    0.239    1.210   152.1    22.6    20.8
2005 11 06    00 39.32   +27 13.0    0.268    1.229   148.9    24.6    21.1
2005 11 16    01 01.46   +28 17.8    0.308    1.255   145.8    26.2    21.5
2005 11 26    01 24.57   +28 42.3    0.358    1.289   142.5    27.8    22.0

Timothy B. Spahr             (C) Copyright 2005 MPC           M.P.E.C. 2005-Q47

Read MPEC 2005-Q46 Read MPEC 2005-Q48


Our Web policy. Index to the CBAT/MPC/ICQ pages.


Valid HTML 4.01!